Location: Newark
(43.6583°N, 1.6617°E)
Time: 23:06:17
(UTC+00:00)

Transit 4A - Pass Details

Date: 27 August 2019
Orbit: 865 x 980 km, 66.8° (Epoch: 19 September)

Event Time Altitude Azimuth Distance (km) Brightness Sun altitude
Rises 15:06:19 0° 156° (SSE) 3,657 11.0 36.7°
Reaches altitude 10° 15:10:02 10° 135° (SE) 2,723 10.3 36.1°
Maximum altitude 15:13:30 15° 102° (ESE) 2,363 9.8 35.6°
Drops below altitude 10° 15:16:58 10° 69° (ENE) 2,732 9.9 35.0°
Sets 15:20:40 0° 48° (NE) 3,676 10.5 34.3°
